Вернуться в каталог

STARLINK-36183

АктивенСвязьVLEO
NORAD 67173·PAYLOAD·🇺🇸 United States

Запущен Dec 17, 2025 с Cape Canaveral Space Force Station

Loading…

Ближайшие Пролёты (ближайшие 24 часа)

TLE

СвежийSource: CelesTrak SupGP

Эпоха: Sep 15, 2026, 02:56 UTC

1 67173C 25303L   26258.12270833  .00046107  00000+0  16697-2 0  2582
2 67173  43.0009 321.1079 0001448 262.3630 113.8511 15.27560215    19

Отслеживайте STARLINK-36183 в реальном времени с AllMySat

Download on the App Store